This demonstration page uses our WeatherBlox Daily Observations layout. Learn more.

Left ArrowRight Arrow

Hourly Observations for May 6, 2022

Temp ( °F °C ) Dew Point ( °F °C ) Humidity (%) Winds ( mph kmh ) Pressure ( in mb ) Visibility ( mi km ) Precip ( " mm )
12:00 am 00:00 Mostly Cloudy 50 10 48 8.9 93 93 NNW 16 26 29.85 1011 10 16 0.00 0.00
12:53 am 00:53 Cloudy 50 10 49 9.4 96 96 NNW 10 17 29.83 1010 10 16 0.00 0.00
1:53 am 01:53 Cloudy 52 11.1 49 9.4 89 89 N 12 19 29.82 1010 10 16 0.00 0.00
2:53 am 02:53 Cloudy 52 11.1 49 9.4 89 89 NNW 13 20 29.80 1009 10 16 0.00 0.00
3:53 am 03:53 Cloudy 52 11.1 49 9.4 89 89 NW 13 20 29.83 1010 10 16 0.00 0.00
4:53 am 04:53 Cloudy with Mist and Fog 51 10.6 50 10 96 96 NW 9 15 29.85 1011 6 10 0.00 0.00
5:53 am 05:53 Cloudy with Mist and Fog 51 10.6 50 10 96 96 NW 12 19 29.85 1011 5 8 0.00 0.00
6:10 am 06:10 Cloudy 51 10.6 50 10 96 96 NNW 9 15 29.87 1011 8 13 0.00 0.00
6:28 am 06:28 Cloudy 51 10.6 50 10 96 96 N 7 11 29.87 1011 8 13 0.00 0.00
6:46 am 06:46 Mostly Cloudy 51 10.6 50 10 96 96 NNW 7 11 29.88 1012 8 13 0.00 0.00
6:53 am 06:53 Mostly Cloudy 51 10.6 50 10 96 96 NW 9 15 29.87 1012 8 13 0.00 0.00
7:53 am 07:53 Cloudy 52 11.1 50 10 93 93 NW 9 15 29.90 1013 7 11 0.00 0.00
8:46 am 08:46 Cloudy 53 11.7 51 10.6 93 93 WNW 8 13 29.92 1013 7 11 0.00 0.00
8:53 am 08:53 Cloudy with Mist and Fog 53 11.7 51 10.6 93 93 NW 8 13 29.92 1013 5 8 0.00 0.00
9:53 am 09:53 Cloudy 55 12.8 51 10.6 87 87 NW 6 9 29.92 1013 10 16 0.00 0.00
10:53 am 10:53 Cloudy 57 13.9 50 10 78 78 NNW 9 15 29.92 1013 10 16 0.00 0.00
11:53 am 11:53 Cloudy 57 13.9 51 10.6 81 81 NNW 7 11 29.92 1013 10 16 0.00 0.00
12:53 pm 12:53 Cloudy 60 15.6 51 10.6 72 72 Calm 29.90 1013 10 16 0.00 0.00
1:53 pm 13:53 Cloudy 61 16.1 52 11.1 72 72 NNE 3 6 29.88 1012 10 16 0.00 0.00
2:53 pm 14:53 Mostly Cloudy 64 17.8 53 11.7 68 68 Calm 29.87 1012 10 16 0.00 0.00
3:22 pm 15:22 Partly Cloudy 65 18.3 53 11.7 66 66 VRB 6 9 29.84 1010 10 16 0.00 0.00
3:53 pm 15:53 Partly Cloudy 65 18.3 54 12.2 68 68 ENE 6 9 29.85 1011 10 16 0.00 0.00
4:53 pm 16:53 Mostly Sunny 66 18.9 55 12.8 68 68 S 7 11 29.82 1010 10 16 0.00 0.00
5:53 pm 17:53 Mostly Sunny 67 19.4 55 12.8 66 66 SSE 6 9 29.81 1010 10 16 0.00 0.00
6:53 pm 18:53 Mostly Sunny 66 18.9 55 12.8 68 68 SSW 6 9 29.82 1010 10 16 0.00 0.00
7:34 pm 19:34 Sunny 66 18.9 55 12.8 68 68 SSE 5 7 29.81 1009 10 16 0.00 0.00
7:53 pm 19:53 Partly Cloudy 64 17.8 56 13.3 75 75 SSE 5 7 29.83 1010 10 16 0.00 0.00
8:53 pm 20:53 Partly Cloudy 61 16.1 55 12.8 81 81 SE 7 11 29.83 1010 10 16 0.00 0.00
9:11 pm 21:11 Clear 61 16.1 55 12.8 81 81 SE 7 11 29.82 1010 10 16 0.00 0.00
9:53 pm 21:53 Partly Cloudy 60 15.6 55 12.8 84 84 SE 8 13 29.83 1010 10 16 0.00 0.00
10:53 pm 22:53 Mostly Clear 59 15 54 12.2 83 83 SE 8 13 29.84 1011 10 16 0.00 0.00
11:53 pm 23:53 Mostly Clear 58 14.4 54 12.2 87 87 ESE 8 13 29.83 1010 10 16 0.00 0.00

Powered by AerisWeather